Weather Roundup
Issued by NWS

Home | Current Version | Previous Version | Text Only | Print | Product List | Glossary On
Versions: 1 2 3 4 5 6 7 8 9 10 11 12 13 14 15 16 17 18 19 20 21 22 23 24 25 26 27 28 29 30 31 32 33 34 35 36 37 38 39 40 41 42 43 44 45 46 47 48 49 50
000
NZUS93 KARX 281210
HRRWXR

CURRENT HOURLY OBSERVATIONS ACROSS
MUCH OF THE UPPER MISSISSIPPI VALLEY
NATIONAL WEATHER SERVICE LA CROSSE WI
700 AM CDT SAT MAR 28 2015


...SOUTHEAST MINNESOTA...


CITY           SKY/WX    TMP DP  RH WIND       PRES   REMARKS
ROCHESTER      CLEAR     15   9  76 SE7       30.22R WCI   5
ROCHESTER/MAYO FAIR      19  12  73 SE3       30.23R
WINONA         CLEAR     19  18  93 CALM      30.27R
AUSTIN         MOCLDY    19  16  86 SE3       30.21R
ALBERT LEA     CLOUDY    25  18  74 S7        30.19S WCI  17
DODGE CENTER   PTCLDY    14   9  79 SE5       30.20R WCI   6
PRESTON        CLEAR     16   8  70 S3        30.23R
OWATONNA       CLEAR     18  12  79 E3        30.20R
FARIBAULT      CLEAR     18  10  73 CALM      30.21R
$$

...ELSEWHERE IN MINNESOTA...


CITY           SKY/WX    TMP DP  RH WIND       PRES   REMARKS
MINNEAPOLIS    CLEAR     20   9  62 SE5       30.23R WCI  13
INTNL FALLS    CLEAR     12   5  73 CALM      30.14R
DULUTH         CLEAR     13   7  77 VRB3      30.18R
RED WING       FAIR      16  12  86 CALM      30.24R
REDWOOD FALLS  CLOUDY    30  25  81 SE6       30.16R WCI  24
MANKATO        MOCLDY    21  16  79 SE7       30.20R WCI  13
WORTHINGTON    CLOUDY    27  23  86 SE7       30.14R WCI  19
FAIRMONT       CLOUDY    27  19  74 SE7       30.17R WCI  19
$$

...SOUTHWEST WISCONSIN...


CITY           SKY/WX    TMP DP  RH WIND       PRES   REMARKS
LA CROSSE      CLEAR     20  15  81 E5        30.26R WCI  13
PRAIRIE DU CHI PTCLDY    15  10  81 E5        30.27R WCI   7
BOSCOBEL       PTCLDY    13   9  84 CALM      30.28R
LONE ROCK      CLEAR     14   9  80 CALM      30.28R
PLATTEVILLE    CLEAR     20  15  82 E3        30.26R
FORT MC COY    CLEAR      9   7  89 CALM      30.26R
CAMP DOUGLAS   CLEAR      9   9  99 E5        30.25R WCI   0
VIROQUA        FAIR      19  10  68 SE6       30.22R WCI  11
WIS DELLS      CLEAR     13   8  79 CALM      30.26R
$$

...ELSEWHERE IN WISCONSIN...


CITY           SKY/WX    TMP DP  RH WIND       PRES   REMARKS
MILWAUKEE      PTCLDY    19  11  70 NW3       30.28R
MADISON        MOCLDY    15  11  83 CALM      30.27R
GREEN BAY      CLEAR     17  12  80 CALM      30.29R
EAU CLAIRE     FAIR      14   9  80 CALM      30.24R
BLACK RVR FLS  FAIR       6   3  87 CALM      30.25R
MEDFORD        CLEAR     13   9  83 CALM      30.20R
WAUSAU         CLEAR     13   8  81 E6        30.22R WCI   4
WIS RAPIDS     CLEAR     11   6  81 CALM      30.27R
MARSHFIELD     CLEAR     16  10  77 CALM      30.23R
RICE LAKE      CLEAR     16  13  89 CALM      30.24R
$$

...NORTHEAST IOWA...


CITY           SKY/WX    TMP DP  RH WIND       PRES   REMARKS
DECORAH        CLEAR     16   9  73 CALM      30.23R
MASON CITY     MOCLDY    23  16  74 SE7       30.21R WCI  15
CHARLES CITY   CLOUDY    23  14  68 SE7       30.22S WCI  15
OELWEIN        CLOUDY    21  14  73 E6        30.24R WCI  14
$$

...ELSEWHERE IN IOWA...


CITY           SKY/WX    TMP DP  RH WIND       PRES   REMARKS
DES MOINES     CLOUDY    32  13  45 SE6       30.20R WCI  26
IOWA CITY      CLEAR     21  13  71 SE3       30.27R
FORT DODGE     CLOUDY    28  16  59 SE5       30.18R WCI  23
$$

...NORTHERN ILLINOIS...


CITY           SKY/WX    TMP DP  RH WIND       PRES   REMARKS
CHICAGO-OHARE  PTCLDY    20  13  74 N5        30.27R WCI  13
CHICAGO-MIDWAY PTCLDY    25  11  55 NE6       30.28R WCI  18
MOLINE         CLEAR     18  13  80 E6        30.28R WCI  10
ROCKFORD       PTCLDY    16  11  80 CALM      30.30R
PEORIA         PTCLDY    23  13  65 E5        30.29R WCI  17
$$

NOTE: "FAIR" INDICATES FEW OR NO CLOUDS BELOW 12,000 FEET WITH NO
SIGNIFICANT WEATHER AND/OR OBSTRUCTIONS TO VISIBILITY. WIND
SPEEDS ARE IN MILES-PER-HOUR.



USA.gov is the U.S. government's official web portal to all federal, state and local government web resources and services.